Date,TemperatureHighF,TemperatureAvgF,TemperatureLowF,DewpointHighF,DewpointAvgF,DewpointLowF,HumidityHigh,HumidityAvg,HumidityLow,PressureMaxIn,PressureMinIn,WindSpeedMaxMPH,WindSpeedAvgMPH,GustSpeedMaxMPH,PrecipitationSumIn
2013-1-1,32,28,21,31,23,7,98,81,55,28.88,28.76,14,3,14,0.00
2013-1-2,26,19,11,12,8,5,79,62,43,29.03,28.85,13,2,13,0.00
2013-1-3,33,20,3,15,8,-2,79,61,42,29.00,28.91,21,4,21,0.00
2013-1-4,32,28,26,16,14,11,63,54,43,29.03,28.94,24,9,24,0.00
2013-1-5,37,30,25,19,15,10,68,54,44,29.18,28.94,15,4,15,0.00
2013-1-6,37,35,33,31,23,18,87,62,53,29.00,28.79,15,4,15,0.00
2013-1-7,34,30,23,25,21,16,83,69,52,29.23,29.00,13,3,13,0.00
2013-1-8,45,28,14,26,19,12,92,72,39,29.15,29.06,12,1,12,0.00
2013-1-9,48,39,25,36,27,19,97,65,48,29.26,29.00,17,4,17,0.00
2013-1-10,40,35,24,29,23,18,98,65,42,29.38,29.09,9,2,9,0.00
2013-1-11,55,46,40,53,38,18,98,76,40,29.09,28.73,10,2,10,0.35
2013-1-12,60,55,50,57,53,50,98,91,71,28.88,28.76,11,1,11,0.00
2013-1-13,67,62,57,57,51,48,98,68,51,28.76,28.64,15,3,17,0.04
2013-1-14,58,36,29,57,25,16,98,65,44,29.18,28.70,22,3,22,0.08
2013-1-15,33,29,21,22,17,14,93,63,46,29.18,28.88,9,2,9,0.00
2013-1-16,34,32,30,33,29,17,98,90,54,28.88,28.67,15,4,15,0.00
2013-1-17,31,31,31,24,24,24,75,75,75,28.79,28.79,6,6,11,0.00
2013-1-19,52,49,46,20,18,16,33,29,27,28.88,28.61,22,7,22,0.00
2013-1-20,48,33,22,24,12,5,50,41,31,28.94,28.56,29,9,29,0.00
2013-1-21,22,19,11,19,8,-6,91,63,46,28.91,28.70,24,6,24,0.00
2013-1-22,11,8,5,-6,-8,-11,47,47,47,29.06,28.85,22,7,26,0.00
2013-1-23,14,9,2,-3,-7,-14,47,47,47,29.06,28.85,15,4,15,0.00
2013-1-24,23,14,5,7,-4,-14,74,44,33,29.32,28.85,14,2,14,0.00
2013-1-25,17,13,5,14,0,-14,89,61,41,29.29,28.79,13,2,13,0.00
2013-1-26,26,21,12,20,13,5,90,72,48,29.23,28.85,17,3,17,0.00
2013-1-27,31,20,5,14,7,-1,78,58,42,29.32,29.09,10,2,10,0.00
2013-1-28,50,40,29,49,38,14,98,93,50,29.09,28.79,15,4,15,0.39
2013-1-29,61,55,50,56,49,45,98,82,58,28.85,28.59,14,2,14,0.00
2013-1-30,68,58,50,56,49,41,98,74,46,28.59,28.05,23,4,23,0.00
2013-1-31,50,27,22,41,15,4,98,59,43,28.64,28.05,32,12,32,0.00
2013-2-1,22,15,10,8,-1,-7,66,49,45,29.12,28.61,25,9,25,0.00
2013-2-2,23,16,9,21,7,-8,93,67,46,29.09,28.76,15,3,15,0.00
2013-2-3,23,22,18,21,15,4,93,76,47,28.79,28.61,17,4,17,0.00
2013-2-4,26,21,17,24,13,3,94,72,52,28.85,28.64,16,4,16,0.00
2013-2-5,31,27,26,27,24,16,98,88,61,28.73,28.61,10,1,10,0.00
2013-2-6,34,27,15,27,15,6,96,63,37,29.12,28.73,12,3,12,0.00
2013-2-7,44,30,14,22,16,6,76,55,39,29.09,28.76,14,4,14,0.04
2013-2-8,39,32,25,38,24,13,98,73,61,28.94,28.61,25,6,25,0.12
2013-2-9,35,25,18,15,12,8,81,59,38,29.18,28.94,15,3,17,0.00
2013-2-10,48,34,17,19,14,8,81,46,27,29.12,28.73,11,3,11,0.00
2013-2-11,59,45,36,45,31,16,98,62,27,28.73,28.47,36,8,36,0.04
2013-2-12,40,33,26,21,18,16,80,53,42,28.88,28.70,24,6,24,0.00
2013-2-13,31,26,23,23,21,20,89,80,70,28.70,28.59,7,1,7,0.00
2013-2-14,41,34,27,31,27,21,93,76,53,28.73,28.64,11,3,11,0.00
2013-2-15,40,34,26,31,22,16,98,62,42,28.85,28.70,17,4,17,0.00
2013-2-16,28,24,18,22,14,5,92,67,39,28.85,28.70,9,1,9,0.00
2013-2-17,24,18,11,20,7,-5,91,63,39,29.03,28.70,17,6,17,0.00
2013-2-18,42,24,1,22,4,-14,56,43,35,29.06,28.67,14,2,14,0.00
2013-2-19,46,35,21,39,25,9,94,69,38,28.73,28.47,26,8,26,0.28
2013-2-20,21,19,17,14,6,0,78,55,44,29.00,28.73,24,10,25,0.00
2013-2-21,24,20,17,16,9,5,85,62,48,29.12,28.97,13,5,13,0.00
2013-2-22,36,30,20,35,23,8,98,76,48,29.06,28.79,17,5,17,0.00
2013-2-23,41,36,31,37,30,22,98,81,57,28.79,28.67,7,1,7,0.00
2013-2-24,31,29,27,26,19,12,91,65,47,28.94,28.67,16,4,16,0.00
2013-2-25,42,32,21,25,19,15,93,61,39,29.03,28.85,11,2,11,0.00
2013-2-26,40,36,31,37,25,15,98,68,40,28.85,28.38,23,8,23,0.63
2013-2-27,43,39,35,40,36,28,98,88,58,28.47,28.35,18,5,18,0.31
2013-2-28,36,34,33,35,31,24,98,88,65,28.61,28.41,15,3,15,0.08
2013-3-1,34,29,25,33,22,14,98,73,58,28.76,28.61,11,3,11,0.00
2013-3-2,28,26,24,23,18,11,85,72,52,28.76,28.70,10,2,10,0.00
2013-3-3,27,25,23,24,16,9,91,68,51,28.79,28.70,15,6,15,0.00
2013-3-4,24,22,21,18,12,8,76,63,54,28.88,28.79,14,4,14,0.00
2013-3-5,43,31,18,18,15,10,87,55,29,28.88,28.47,22,5,22,0.00
2013-3-6,42,37,34,37,27,16,98,72,41,28.91,28.47,21,4,21,0.04
2013-3-7,40,35,32,33,27,20,93,73,46,29.09,28.91,15,3,15,0.04
2013-3-8,38,32,27,26,23,20,90,69,50,29.21,29.09,12,3,12,0.04
2013-3-9,54,38,22,28,22,17,96,59,27,29.21,28.97,10,1,10,0.00
2013-3-10,69,56,43,30,23,17,35,28,22,28.97,28.79,10,3,11,0.00
2013-3-11,63,56,48,48,28,23,95,37,26,28.79,28.50,17,3,17,0.28
2013-3-12,48,39,35,46,30,22,98,71,53,28.79,28.56,16,6,16,0.16
2013-3-13,35,31,27,34,22,10,98,71,44,28.91,28.70,22,6,22,0.00
2013-3-14,27,27,26,16,15,14,62,60,59,28.91,28.91,16,10,16,0.00
2013-3-18,40,38,38,39,36,34,96,90,86,28.53,28.50,11,3,11,0.00
2013-3-19,44,36,29,43,23,10,98,62,41,28.76,28.50,31,8,31,0.00
2013-3-20,36,30,25,24,12,9,76,46,38,28.76,28.61,28,7,28,0.00
2013-3-21,28,23,17,24,8,0,86,54,41,28.67,28.64,17,7,17,0.47
2013-3-22,32,27,23,23,15,11,85,60,45,28.79,28.67,17,6,20,0.00
2013-3-23,46,32,20,23,18,15,93,60,33,28.82,28.76,13,1,13,0.00
2013-3-24,43,33,25,34,17,14,98,53,34,28.79,28.35,17,6,17,0.00
2013-3-25,38,36,34,38,36,34,98,98,97,28.56,28.26,17,3,17,0.24
2013-3-26,40,36,34,36,30,24,98,80,56,28.85,28.56,15,4,15,0.08
2013-3-27,42,37,35,36,28,16,98,75,39,28.94,28.85,18,6,18,0.08
2013-3-28,42,38,35,33,25,21,91,62,46,29.06,28.91,14,5,14,0.00
2013-3-29,52,41,32,32,23,14,86,52,27,29.06,28.94,15,2,15,0.00
2013-3-30,55,40,24,26,19,14,89,48,25,29.03,28.82,11,1,11,0.00
2013-3-31,50,46,38,49,32,15,97,62,33,28.82,28.53,9,1,9,0.08
2013-4-1,48,40,32,45,22,8,91,51,29,28.82,28.50,19,6,19,0.00
2013-4-2,38,31,26,17,10,5,69,42,31,28.97,28.79,20,5,22,0.00
2013-4-3,39,31,23,15,9,4,57,40,30,29.18,28.94,17,3,20,0.00
2013-4-4,54,35,16,16,11,4,82,43,19,29.18,28.76,12,2,12,0.00
2013-4-5,53,39,26,25,17,11,65,42,28,28.97,28.73,18,2,18,0.00
2013-4-6,57,40,22,20,15,11,85,42,20,29.09,28.82,13,2,13,0.00
2013-4-7,72,61,51,36,29,16,51,30,24,28.82,28.67,28,6,28,0.00
2013-4-8,73,60,42,41,38,34,85,47,27,28.85,28.70,17,3,18,0.00
2013-4-9,79,68,56,50,43,35,71,41,29,28.91,28.70,17,4,17,0.00
2013-4-10,77,69,62,63,53,43,98,60,36,28.76,28.61,29,4,29,0.98
2013-4-11,72,63,55,62,56,47,98,79,44,28.70,28.44,23,3,23,0.00
2013-4-12,64,55,43,62,45,26,98,71,42,28.67,28.32,26,6,26,0.00
2013-4-13,50,43,39,31,27,20,65,53,38,28.82,28.64,23,6,23,0.00
2013-4-14,62,44,30,30,25,20,88,50,28,28.94,28.82,11,2,13,0.00
2013-4-15,67,62,59,42,39,32,49,42,34,28.88,28.85,21,4,21,0.00
2013-4-16,76,63,56,58,49,40,98,62,38,29.03,28.85,16,4,16,0.00
2013-4-17,70,60,50,57,46,33,98,64,32,29.06,28.88,13,2,13,0.00
2013-4-18,84,72,62,55,50,44,78,49,26,28.91,28.59,19,4,19,0.00
2013-4-19,72,59,42,62,42,24,95,56,38,28.67,28.32,27,6,27,0.00
2013-4-20,44,40,33,28,20,15,68,45,35,29.18,28.67,25,8,25,0.00
2013-4-21,52,39,26,28,19,14,93,49,27,29.38,29.18,14,3,14,0.00
2013-4-22,62,50,39,28,21,15,41,32,25,29.23,29.06,16,5,16,0.00
2013-4-23,70,56,40,32,27,19,60,35,23,29.06,28.76,10,2,10,0.00
2013-4-24,67,54,39,59,41,28,95,65,30,28.97,28.53,30,4,30,0.24
2013-4-25,56,44,34,44,30,21,98,61,29,29.15,28.94,18,4,18,0.00
2013-4-26,61,47,34,45,30,21,98,63,25,29.26,29.12,10,1,10,0.00
2013-4-27,72,66,52,31,28,22,39,23,20,29.15,28.97,13,4,13,0.00
2013-4-28,61,57,52,56,45,28,98,69,29,28.97,28.73,14,4,14,0.16
2013-4-29,64,58,54,62,54,47,98,87,73,28.85,28.73,11,1,11,0.00
2013-4-30,72,63,55,59,49,41,98,65,35,29.00,28.85,15,4,15,0.00
2013-5-1,75,64,55,48,40,26,78,46,23,29.12,29.00,17,5,17,0.00
2013-5-2,76,63,48,37,29,24,51,29,18,29.18,29.03,17,4,17,0.00
2013-5-3,73,63,48,36,31,26,51,31,22,29.06,28.97,22,6,22,0.00
2013-5-4,70,60,48,35,32,28,58,36,25,29.03,28.91,20,6,20,0.00
2013-5-5,72,61,48,37,29,20,66,33,16,28.97,28.82,23,6,23,0.00
2013-5-6,70,60,47,50,37,24,65,44,27,28.91,28.82,18,6,18,0.00
2013-5-7,70,63,58,52,48,40,79,60,35,28.85,28.79,18,6,18,0.00
2013-5-8,73,63,57,58,47,35,98,59,27,28.82,28.73,17,3,17,0.00
2013-5-9,78,64,55,59,47,30,98,61,21,28.82,28.73,12,2,12,0.00
2013-5-10,74,63,54,64,57,42,98,81,44,28.82,28.61,24,2,24,0.00
2013-5-11,64,57,52,64,52,44,98,83,64,28.67,28.59,11,3,11,0.51
2013-5-12,53,46,36,48,26,19,88,49,31,28.85,28.64,26,7,26,0.00
2013-5-13,52,42,33,36,23,15,98,52,27,29.00,28.85,15,3,15,0.00
2013-5-14,62,47,30,38,28,21,98,55,30,29.00,28.70,14,2,14,0.00
2013-5-15,52,51,50,39,32,31,66,49,45,28.70,28.64,5,0,5,0.00
2013-5-22,86,75,67,69,58,50,95,59,32,28.73,28.59,16,3,16,0.00
2013-5-23,74,66,50,67,60,48,98,84,45,28.76,28.59,15,3,15,0.39
2013-5-24,50,45,39,49,34,23,98,67,42,29.09,28.76,16,4,16,0.00
2013-5-25,62,48,34,38,29,24,98,55,26,29.12,29.03,20,3,20,0.00
2013-5-26,67,51,35,39,30,23,98,52,23,29.12,29.03,13,2,13,0.00
2013-5-27,61,52,38,44,37,29,98,60,32,29.09,28.91,10,2,10,0.04
2013-5-28,79,67,55,67,58,39,98,76,43,28.91,28.79,14,2,14,0.28
2013-5-29,84,76,69,57,53,46,64,46,32,28.91,28.82,17,4,17,0.00
2013-5-30,86,75,62,68,57,48,98,59,29,29.03,28.91,11,2,11,0.00
2013-5-31,87,76,65,68,57,48,98,59,29,28.94,28.82,26,2,26,0.00
2013-6-1,84,76,68,65,59,54,90,58,37,28.85,28.64,17,3,17,0.00
2013-6-2,79,74,67,64,54,45,77,53,32,28.70,28.61,19,5,19,0.00
2013-6-3,68,61,47,57,45,30,86,57,32,28.91,28.70,10,1,10,0.00
2013-6-4,72,58,40,45,38,33,98,54,27,29.00,28.91,11,1,11,0.00
2013-6-5,81,66,49,51,44,38,92,49,30,28.97,28.76,10,3,10,0.00
2013-6-6,70,68,67,69,65,50,98,90,50,28.76,28.61,9,2,9,0.00
2013-6-7,67,63,58,67,59,51,98,88,73,28.70,28.61,9,1,9,0.00
2013-6-8,71,62,58,59,51,44,98,71,41,28.94,28.67,9,1,9,0.00
2013-6-9,79,68,55,62,54,47,98,66,37,29.00,28.85,13,4,13,0.00
2013-6-10,75,70,65,73,67,59,98,89,65,28.85,28.61,13,2,13,0.39
2013-6-11,77,69,64,69,62,51,98,80,43,28.73,28.61,15,3,15,0.00
2013-6-12,81,72,62,72,63,52,98,76,40,28.76,28.59,12,1,12,0.51
2013-6-13,75,67,60,74,62,51,98,85,62,28.64,28.38,25,4,25,1.26
2013-6-14,74,63,56,59,54,42,98,75,34,28.88,28.64,13,2,13,0.00
2013-6-15,77,64,49,58,46,-14,98,61,22,28.97,28.82,11,2,11,0.00
2013-6-16,75,68,64,70,64,58,98,86,65,28.85,28.73,15,3,15,0.35
2013-6-17,83,73,64,69,57,31,98,65,23,28.82,28.73,10,2,10,0.35
2013-6-18,80,70,62,64,56,50,98,64,42,28.82,28.67,10,1,10,0.35
2013-6-19,76,65,56,54,44,33,93,53,23,28.97,28.82,14,2,14,0.00
2013-6-20,81,66,50,58,47,34,98,60,22,29.06,28.97,8,1,8,0.35
2013-6-21,85,70,55,65,52,41,98,61,24,29.09,29.00,9,1,9,0.35
2013-6-22,86,74,60,69,60,54,98,67,34,29.03,28.91,12,2,12,0.00
2013-6-23,87,76,67,73,62,51,98,68,31,29.00,28.88,11,2,11,0.35
2013-6-24,87,77,65,70,60,51,98,61,31,28.97,28.85,11,3,13,0.00
2013-6-25,87,77,67,69,63,54,98,67,39,28.88,28.73,21,4,21,1.57
2013-6-26,81,73,68,72,66,57,98,80,47,28.82,28.67,10,2,10,1.14
2013-6-27,77,72,68,73,68,58,98,89,57,28.67,28.50,11,2,11,0.55
2013-6-28,80,70,65,71,65,52,98,87,42,28.50,28.35,13,2,14,0.43
2013-6-29,79,69,64,66,60,50,98,77,40,28.56,28.41,16,2,16,0.55
2013-6-30,79,70,62,73,63,55,98,82,46,28.70,28.53,18,1,18,0.55
2013-7-1,76,70,67,72,64,57,98,83,55,28.79,28.67,17,2,17,0.55
2013-7-2,83,74,68,72,66,58,98,79,46,28.91,28.76,12,1,12,0.04
2013-7-3,86,76,69,72,65,54,98,73,38,29.00,28.91,14,1,14,0.12
2013-7-4,83,76,71,76,68,55,98,79,43,29.06,28.97,9,1,9,0.55
2013-7-5,74,72,70,73,71,67,98,97,81,29.00,28.97,7,0,7,0.00
2013-7-6,87,77,69,76,67,56,98,75,37,29.03,28.88,8,1,8,0.00
2013-7-7,80,74,71,72,65,54,98,76,44,28.94,28.85,11,3,11,0.00
2013-7-8,83,74,65,71,62,54,98,70,41,28.97,28.88,11,3,12,0.47
2013-7-9,84,75,70,74,71,68,98,90,63,28.94,28.79,11,2,11,0.24
2013-7-10,86,74,68,77,71,60,98,92,66,28.85,28.64,22,2,22,2.09
2013-7-11,78,70,61,69,57,44,98,69,33,28.85,28.73,10,1,10,1.61
2013-7-12,76,68,59,67,58,46,98,76,37,28.94,28.85,10,2,10,0.00
2013-7-13,82,72,61,68,60,54,98,69,43,29.06,28.94,11,2,11,0.00
2013-7-14,88,77,67,75,65,53,98,70,34,29.12,29.06,13,1,13,0.00
2013-7-15,90,79,68,76,66,54,98,70,31,29.18,29.09,8,1,8,0.00
2013-7-16,90,78,71,78,72,60,98,85,40,29.15,29.09,10,1,10,0.31
2013-7-17,88,79,72,80,72,61,98,82,43,29.15,29.00,14,1,14,0.00
2013-7-18,90,81,72,79,71,59,98,74,38,29.03,28.88,10,2,10,0.31
2013-7-19,89,79,72,77,69,54,98,77,33,28.88,28.70,31,3,31,0.35
2013-7-20,84,75,71,73,67,58,98,77,47,28.76,28.67,13,2,13,0.31
2013-7-21,86,75,70,73,66,52,98,78,35,28.82,28.76,9,1,9,0.31
2013-7-22,78,72,67,73,70,62,98,92,65,28.79,28.61,8,1,8,0.31
2013-7-23,82,71,66,71,65,52,98,84,39,28.64,28.56,15,3,18,0.35
2013-7-24,71,65,57,68,52,39,98,65,34,28.85,28.61,9,1,9,0.31
2013-7-25,76,63,52,59,48,36,98,64,27,28.94,28.85,14,2,14,0.00
2013-7-26,80,66,53,62,51,-13,98,66,3,28.94,28.82,9,1,9,0.31
2013-7-27,75,66,60,68,62,55,98,88,51,28.85,28.70,11,1,11,0.04
2013-7-30,71,66,62,64,61,57,98,88,62,29.00,28.97,0,0,0,0.75
2013-7-31,78,67,58,67,59,46,98,78,37,29.00,28.79,9,1,9,0.00
2013-8-1,80,71,64,70,60,44,98,73,30,28.79,28.70,12,2,12,0.04
2013-8-2,75,67,57,64,52,-13,98,66,3,28.82,28.73,15,2,15,0.00
2013-8-3,79,70,59,68,58,36,98,70,23,28.85,28.76,12,3,12,0.24
2013-8-4,74,64,55,63,50,39,98,66,31,28.94,28.82,13,2,13,0.04
2013-8-5,73,63,52,62,51,37,98,72,31,28.97,28.85,8,1,8,0.00
2013-8-6,79,68,56,63,52,28,98,65,19,28.88,28.82,8,1,9,0.00
2013-8-7,82,70,61,73,65,59,98,86,48,28.82,28.73,9,1,9,0.12
2013-8-8,84,75,68,73,68,61,98,82,49,28.82,28.73,9,1,9,0.75
2013-8-9,78,72,64,74,68,53,98,87,46,28.85,28.73,9,1,9,0.20
2013-8-10,81,70,62,67,57,46,98,68,33,28.94,28.85,8,0,8,0.00
2013-8-11,80,70,62,68,55,46,98,62,37,28.97,28.88,8,1,8,0.00
2013-8-12,81,71,61,70,60,48,98,72,34,28.91,28.73,8,1,8,0.00
2013-8-13,77,70,55,72,57,41,98,66,40,28.82,28.64,12,2,12,0.04
2013-8-14,69,58,50,54,47,38,98,70,34,28.97,28.82,10,2,11,0.00
2013-8-15,73,60,46,57,45,32,98,67,26,29.03,28.94,9,1,9,0.00
2013-8-16,77,65,55,58,49,40,98,64,28,29.00,28.94,11,1,11,0.00
2013-8-17,76,66,56,61,50,39,98,63,27,29.09,29.00,13,3,13,0.00
2013-8-18,72,66,61,68,60,54,98,81,56,29.06,28.97,8,1,8,0.00
2013-8-19,79,70,62,70,62,47,98,79,34,29.00,28.91,8,1,8,0.04
2013-8-20,82,69,56,67,54,-18,98,69,2,29.03,28.94,8,1,8,0.00
2013-8-21,76,70,68,68,67,59,98,90,56,28.94,28.91,0,0,0,0.00
2013-8-22,82,74,67,70,63,54,98,73,41,28.94,28.82,15,3,15,0.04
2013-8-23,83,72,63,71,52,-18,98,64,2,28.97,28.82,11,1,11,0.00
2013-8-25,72,66,64,63,61,52,93,84,50,29.09,29.09,3,0,3,0.00
2013-8-26,84,72,60,66,56,47,98,63,30,29.09,28.88,14,3,14,0.00
2013-8-27,82,75,71,75,68,61,98,79,55,28.88,28.79,11,3,11,0.04
2013-8-28,82,76,72,78,74,67,98,93,63,28.79,28.67,10,1,10,1.18
2013-8-29,84,76,69,73,65,50,98,75,33,28.88,28.76,11,2,11,0.00
2013-8-30,86,75,64,73,64,53,98,74,37,28.85,28.67,11,2,11,0.00
2013-8-31,85,77,73,74,66,53,96,72,35,28.70,28.61,11,2,11,0.00
2013-9-1,79,75,72,75,73,67,98,93,67,28.70,28.61,7,1,7,0.00
2013-9-2,84,75,66,74,66,52,98,79,35,28.70,28.59,15,2,15,0.04
2013-9-3,70,65,59,65,55,41,98,74,39,28.88,28.67,15,2,15,0.00
2013-9-4,77,64,52,61,50,41,98,67,30,28.97,28.88,11,2,11,0.00
2013-9-5,74,65,52,64,48,34,98,57,25,29.06,28.91,10,2,12,0.00
2013-9-6,75,58,45,54,41,29,98,62,22,29.12,28.97,10,1,10,0.00
2013-9-7,79,63,46,62,45,35,98,59,23,28.97,28.76,10,2,10,0.00
2013-9-8,80,70,61,67,58,50,98,68,37,28.91,28.76,8,1,8,0.00
2013-9-9,80,68,57,75,63,54,98,87,50,28.94,28.85,9,1,9,0.24
2013-9-10,90,79,71,73,68,60,98,73,38,28.97,28.88,13,3,13,0.04
2013-9-11,87,78,73,76,70,59,98,80,40,29.00,28.85,10,1,10,0.24
2013-9-12,77,72,63,74,69,61,98,92,73,28.85,28.64,30,2,30,2.13
2013-9-13,66,60,53,65,51,33,98,76,35,28.88,28.67,13,2,13,0.16
2013-9-14,67,56,48,50,41,27,98,63,27,29.00,28.88,9,1,9,0.16
2013-9-15,69,57,44,61,46,35,98,72,32,29.03,28.88,8,1,11,0.00
2013-9-16,70,61,53,61,51,38,98,73,32,29.15,28.91,10,1,10,0.16
2013-9-17,68,55,46,52,41,-12,98,67,20,29.23,29.09,11,2,11,0.16
2013-9-18,74,59,45,60,46,38,98,68,31,29.09,28.94,11,1,11,0.16
2013-9-19,77,66,60,66,59,46,98,83,37,28.97,28.85,9,0,9,0.00
2013-9-20,79,70,60,71,65,60,98,84,55,28.88,28.67,10,1,10,0.00
2013-9-21,72,66,59,71,65,59,98,96,84,28.67,28.53,8,1,8,0.71
2013-9-22,61,57,53,59,46,31,98,71,35,28.85,28.64,10,1,10,0.39
2013-9-23,58,53,44,53,42,29,98,70,37,29.00,28.85,11,1,11,0.00
2013-9-24,70,53,40,50,39,-9,98,69,24,28.97,28.79,11,2,11,0.00
2013-9-25,73,57,44,54,44,-11,98,71,4,28.82,28.73,10,1,10,0.39
2013-9-26,77,60,48,54,44,-14,98,65,3,28.91,28.79,9,1,9,0.39
2013-9-27,74,61,52,57,48,38,98,70,29,29.03,28.91,11,2,11,0.39
2013-9-28,73,61,51,59,47,40,98,66,32,29.09,28.97,11,3,12,0.39
2013-9-29,73,62,52,63,50,42,98,71,37,29.00,28.85,10,1,10,0.39
2013-9-30,71,63,55,66,56,48,98,81,47,28.88,28.82,9,1,9,0.00
2013-10-1,77,66,57,64,55,43,98,74,32,28.91,28.85,14,2,14,0.00
2013-10-2,80,68,60,65,58,45,98,75,31,28.94,28.88,10,2,10,0.00
2013-10-3,79,68,60,70,62,55,98,83,46,28.94,28.85,13,1,13,0.12
2013-10-4,80,71,66,72,65,53,98,84,42,28.94,28.88,11,1,11,0.00
2013-10-5,79,71,66,75,68,59,98,90,54,28.94,28.82,7,1,7,0.24
2013-10-6,83,74,69,71,59,46,98,65,29,28.82,28.59,13,2,13,0.12
2013-10-7,73,58,51,59,43,31,98,61,38,28.97,28.56,17,5,17,0.43
2013-10-8,66,54,43,53,41,32,98,66,31,29.12,28.97,13,2,13,0.12
2013-10-9,68,54,44,49,38,28,98,62,24,29.18,29.06,15,3,15,0.00
2013-10-10,70,56,46,45,36,28,87,50,23,29.06,28.94,10,2,10,0.00
2013-10-11,66,58,53,52,46,41,93,65,41,28.94,28.88,13,2,13,0.00
2013-10-12,72,64,56,60,47,35,82,55,42,28.97,28.88,12,2,12,0.00
2013-10-13,68,63,57,64,55,50,98,75,55,29.09,28.97,10,2,10,0.00
2013-10-14,67,60,54,60,55,44,98,85,46,29.15,29.06,8,1,8,0.12
2013-10-15,69,60,49,60,53,48,98,82,52,29.06,28.82,9,1,9,0.00
2013-10-16,64,61,58,63,58,50,98,90,68,28.82,28.70,13,2,13,0.59
2013-10-17,60,54,48,59,51,43,98,90,58,28.76,28.56,15,2,15,0.55
2013-10-18,61,51,45,50,37,-8,98,64,6,28.85,28.73,14,4,14,0.00
2013-10-19,54,46,40,48,39,34,98,79,49,28.79,28.59,17,2,17,0.04
2013-10-20,58,47,40,41,32,19,98,62,26,28.85,28.76,17,4,17,0.00
2013-10-21,65,53,38,36,28,24,87,41,23,28.88,28.67,17,2,17,0.00
2013-10-22,57,46,37,49,30,17,98,59,28,28.79,28.67,15,4,15,0.20
2013-10-23,43,40,37,39,34,25,96,79,53,28.76,28.59,13,2,13,0.04
2013-10-24,44,38,32,36,27,17,95,68,35,28.94,28.73,18,4,18,0.00
2013-10-25,48,39,33,37,27,17,98,66,32,29.12,28.94,13,3,13,0.00
2013-10-26,48,41,33,28,20,16,77,46,29,29.06,28.70,24,5,24,0.00
2013-10-27,52,42,33,38,28,21,98,61,31,28.91,28.79,13,3,13,0.00
2013-10-28,59,43,29,36,27,20,98,61,25,29.12,28.91,8,1,8,0.00
2013-10-29,60,46,35,42,33,26,98,65,28,29.21,29.06,8,1,8,0.00
2013-10-30,65,53,43,51,39,27,88,63,28,29.06,28.91,9,1,9,0.00
2013-10-31,68,63,57,62,54,43,98,76,41,28.91,28.29,14,3,14,0.16
2013-11-1,69,58,53,59,39,30,88,51,35,28.53,28.20,24,6,24,0.31
2013-11-2,53,49,46,46,38,32,97,67,50,28.79,28.50,15,4,15,0.04
2013-11-3,50,40,30,46,28,17,98,66,31,29.26,28.79,10,1,10,0.00
2013-11-4,45,36,28,19,14,11,67,41,29,29.35,29.23,15,4,15,0.00
2013-11-5,59,47,37,24,20,15,44,35,26,29.29,29.15,10,2,10,0.00
2013-11-6,71,57,40,60,36,18,98,47,32,29.15,28.73,17,3,17,0.04
2013-11-7,61,46,38,60,34,16,98,67,36,28.94,28.70,21,5,21,0.67
2013-11-8,44,37,28,29,21,14,85,53,33,29.09,28.88,19,5,19,0.00
2013-11-9,57,43,27,29,21,15,94,47,22,29.09,28.73,17,4,17,0.00
2013-11-10,53,44,37,29,23,19,53,42,27,29.09,28.76,27,8,27,0.00
2013-11-11,48,40,30,37,24,18,94,56,31,29.09,28.85,15,4,15,0.00
2013-11-12,38,32,28,35,22,9,98,71,35,29.26,28.94,15,2,15,0.16
2013-11-13,36,30,25,30,16,10,98,58,35,29.32,29.15,15,5,15,0.00
2013-11-14,49,37,28,16,12,8,50,36,26,29.15,28.97,11,4,17,0.00
2013-11-15,55,43,28,24,17,8,58,35,22,29.00,28.91,15,2,15,0.00
2013-11-16,60,51,38,42,35,23,87,55,37,29.03,28.82,12,2,12,0.00
2013-11-17,63,58,54,63,53,27,98,85,35,28.82,28.35,29,3,29,1.02
2013-11-18,59,47,37,32,24,15,59,41,27,28.88,28.41,30,10,30,0.00
2013-11-19,38,34,26,21,16,13,81,47,39,29.21,28.88,15,3,15,0.00
2013-11-20,47,35,24,23,13,6,87,46,22,29.26,29.15,18,4,18,0.00
2013-11-21,53,43,33,27,18,7,42,36,30,29.21,29.03,8,2,8,0.00
2013-11-22,56,50,36,56,44,27,98,84,42,29.06,28.88,19,3,19,0.20
2013-11-23,36,30,19,29,17,1,89,60,35,29.12,28.94,25,6,25,0.00
2013-11-24,23,19,14,10,3,-2,70,50,35,29.29,29.12,17,6,18,0.00
2013-11-25,35,25,14,28,4,-1,83,42,30,31.01,29.03,17,2,17,0.00
2013-11-26,37,35,33,36,35,28,98,97,84,31.01,20.46,6,0,11,0.31
2013-11-27,35,29,22,35,24,8,98,80,50,17.72,17.72,17,6,17,0.00
2013-11-28,27,23,15,20,10,5,75,57,43,17.72,17.72,15,3,15,0.00
2013-11-29,34,27,18,25,16,11,90,64,41,17.72,17.72,6,1,6,0.12
2013-11-30,40,30,23,20,14,10,70,52,36,17.72,17.72,9,2,9,0.04
2013-12-1,42,35,26,27,21,18,88,58,40,17.72,17.72,9,1,9,0.16
2013-12-2,42,38,35,34,28,23,87,69,48,17.72,17.72,5,0,5,0.00
2013-12-3,54,43,35,42,34,29,98,74,40,17.72,17.72,9,1,9,0.00
2013-12-4,58,49,37,44,37,33,98,66,45,17.72,17.72,10,2,10,0.00
2013-12-5,63,56,39,62,48,35,98,76,47,17.72,17.72,13,2,13,0.51
2013-12-6,39,35,31,38,32,23,98,90,65,17.72,17.72,10,1,10,0.24
2013-12-7,31,25,15,30,13,6,95,62,41,29.35,17.72,10,2,10,0.00
2013-12-8,34,23,14,33,15,4,98,73,47,29.35,28.85,13,4,13,0.00
2013-12-9,41,36,30,40,28,14,98,78,50,28.94,28.73,19,5,19,0.16
2013-12-10,30,26,22,24,10,-11,92,54,21,29.03,28.82,22,7,22,0.00
2013-12-11,29,23,17,20,6,1,80,50,39,29.15,29.03,17,6,17,0.00
2013-12-12,20,17,10,14,-2,-7,77,43,33,29.23,29.03,19,7,19,0.00
2013-12-13,33,24,18,15,4,-5,63,42,34,29.06,28.97,14,4,15,0.00
2013-12-14,40,33,26,40,26,11,98,79,46,29.03,28.47,13,3,13,0.24
2013-12-15,41,29,18,40,20,1,98,69,45,28.82,28.44,24,6,24,0.16
2013-12-16,24,20,16,20,4,0,86,49,39,28.97,28.82,17,4,19,0.00
2013-12-17,35,30,24,34,22,13,98,75,47,28.82,28.73,16,4,16,0.00
2013-12-18,29,26,22,19,13,8,69,57,47,28.97,28.82,20,5,20,0.00
2013-12-19,49,37,21,28,17,9,72,45,32,28.88,28.82,16,3,16,0.00
2013-12-20,56,50,40,53,32,17,92,53,31,28.82,28.70,13,3,13,0.04
2013-12-21,64,60,56,64,57,42,98,90,59,28.70,28.47,13,2,13,0.79
2013-12-22,69,61,51,64,49,35,98,67,46,28.76,28.35,35,6,35,0.20
2013-12-23,51,38,30,50,26,9,98,63,42,29.09,28.76,16,5,16,0.08
2013-12-24,30,21,11,24,6,-3,84,53,40,29.29,29.03,20,6,20,0.00
2013-12-25,28,18,9,25,3,-5,89,52,39,29.29,29.00,11,1,11,0.00
2013-12-26,35,31,24,34,18,6,98,63,34,29.12,28.91,22,5,22,0.00
2013-12-27,41,33,23,19,14,7,55,45,39,29.15,29.03,13,3,13,0.00
2013-12-28,52,42,35,21,17,13,41,37,29,29.03,28.85,15,4,15,0.00
2013-12-29,47,42,37,46,34,15,98,77,35,28.85,28.50,18,3,18,0.47
2013-12-30,41,26,19,33,17,5,87,69,48,28.97,28.64,17,4,17,0.00
2013-12-31,25,22,20,20,10,2,83,59,42,29.09,28.85,28,6,28,0.00
2014-1-1,32,26,22,18,14,9,71,61,50,29.12,28.85,10,2,10,0.00
2014-1-2,31,24,11,27,19,6,91,80,66,28.85,28.50,13,2,13,0.00